Regional Weather Roundup
Issued by NWS

Home | Current Version | Previous Version | Text Only | Print | Product List | Glossary On
Versions: 1 2 3 4 5 6 7 8 9 10 11 12 13 14 15 16 17 18 19 20 21 22 23 24 25 26 27 28 29 30 31 32 33 34 35 36 37 38 39 40 41 42 43 44 45 46 47 48 49 50
000
ASUS43 KOAX 251102
RWRNE

WEATHER ROUNDUP FOR NEBRASKA
NATIONAL WEATHER SERVICE OMAHA NE
600 AM CDT THU AUG 25 2016

NOTES: SATELLITE DATA IS BEING USED TO AUGMENT CLOUD COVER ABOVE
       12000 FEET.
       "FAIR" INDICATES FEW OR NO CLOUDS BELOW 12,000 FEET WITH NO
       SIGNIFICANT WEATHER AND/OR OBSTRUCTIONS TO VISIBILITY.

  * THESE STATIONS DO NOT REPORT WEATHER SUCH AS RAIN...SNOW OR FOG.

NEZ001>004-019>022-054>056-251200-
NEBRASKA PANHANDLE

CITY           SKY/WX    TMP DP  RH WIND       PRES   REMARKS
SCOTTSBLUFF    CLOUDY    51  48  89 CALM      30.24R
ALLIANCE       CLOUDY    52  49  89 NE9       30.23S
CHADRON        CLOUDY    53  47  79 CALM      30.26R
KIMBALL        CLEAR     46  41  83 W3        30.25S
SIDNEY         CLEAR     43  38  82 NW5       30.24R
$$

NEZ057>060-069>072-079>082-251200-
SOUTHWEST NEBRASKA

CITY           SKY/WX    TMP DP  RH WIND       PRES   REMARKS
NORTH PLATTE   CLOUDY    52  50  93 CALM      30.18S
IMPERIAL       MOCLDY    53  47  79 N5        30.19R
LEXINGTON      CLOUDY    57  54  91 W3        30.16R
MCCOOK         MOCLDY    56  51  84 NW8       30.16S
OGALLALA       PTCLDY    45  42  89 W5        30.21R
$$

NEZ005>010-023>029-035>040-094-251200-
NORTH CENTRAL NEBRASKA

CITY           SKY/WX    TMP DP  RH WIND       PRES   REMARKS
VALENTINE      CLEAR     53  44  71 NW6       30.22R
AINSWORTH      MOCLDY    54  50  87 NW3       30.21R
BROKEN BOW     MOCLDY    54  52  93 CALM      30.16R
O`NEILL        MOCLDY    58  52  79 NW12      30.15R
ORD            MOCLDY    56  53  90 NW5       30.13R
THEDFORD       CLOUDY    54  50  87 NW3       30.22R
$$

NEZ041-046>049-061>064-073>077-083>087-251200-
SOUTH CENTRAL NEBRASKA

CITY           SKY/WX    TMP DP  RH WIND       PRES   REMARKS
GRAND ISLAND   MOCLDY    58  55  90 SW3       30.12F
AURORA         CLOUDY    58  58  98 CALM      30.12S
HASTINGS       MOCLDY    58  55  90 CALM      30.13F
HEBRON         LGT RAIN  61  58  91 CALM      30.12R
HOLDREGE       MOCLDY    57  55  91 CALM      30.14S
KEARNEY *      MOCLDY    61  54  77 NW5       30.13S
YORK           CLOUDY    57  55  94 CALM      30.12S
$$

NEZ011>018-030>034-042>045-251200-
NORTHEAST NEBRASKA

CITY           SKY/WX    TMP DP  RH WIND       PRES   REMARKS
NORFOLK        PTCLDY    55  53  93 CALM      30.11S
ALBION         CLOUDY    56  54  90 NW6       30.12S
BLAIR          PTCLDY    60  56  88 N7        30.09R
FREMONT        CLOUDY    55  54  97 NW3       30.11R
TEKAMAH        CLEAR     52  51  97 CALM      30.09R
WAYNE          CLEAR     54  53  97 CALM      30.11S
$$

NEZ050>053-065>068-078-088>093-251200-
SOUTHEAST NEBRASKA

CITY           SKY/WX    TMP DP  RH WIND       PRES   REMARKS
LINCOLN        PTCLDY    59  56  89 N5        30.10S
OMAHA EPPLEY   PTCLDY    59  56  89 N6        30.09S
BEATRICE       CLOUDY    60  58  92 NE7       30.09R
FALLS CITY     CLOUDY    66  64  93 N5        30.04F
NEBRASKA CITY  CLEAR     61  61 100 N6        30.07F
PLATTSMOUTH    CLEAR     60  59  98 N3        30.08S
$$

NEZ044-045-051>053-067-251200-
OMAHA AREA

CITY           SKY/WX    TMP DP  RH WIND       PRES   REMARKS
OMAHA EPPLEY   PTCLDY    59  56  89 N6        30.09S
BLAIR          PTCLDY    60  56  88 N7        30.09R
FREMONT        CLOUDY    55  54  97 NW3       30.11R
MILLARD        CLEAR     58  56  94 CALM      30.08S
OFFUTT AFB     CLEAR     57  57 100 N5        30.07F
PLATTSMOUTH    CLEAR     60  59  98 N3        30.08S
WAHOO          FAIR      55  53  94 CALM      30.10R
$$




USA.gov is the U.S. government's official web portal to all federal, state and local government web resources and services.